Location: Arrien
(42.8963°N, 1.0429°E)
Time: 14:53:14
(UTC+00:00)

Tiangong - Pass Details

Date: 19 February 2026
Orbit: 382 x 391 km, 41.5° (Epoch: 5 March)

Event Time Altitude Azimuth Distance (km) Brightness Sun altitude
Rises 19:27:07 0° 274° (W) 2,255 3.3 -21.7°
Reaches altitude 10° 19:29:27 10° 259° (W) 1,398 1.7 -22.1°
Enters shadow 19:31:44 22° 213° (SSW) 882 -0.1 -22.5°
